Regional Weather Roundup
Issued by NWS Green Bay, WI

Home | Current Version | Previous Version | Graphics & Text | Print | Product List | Glossary Off
Versions: 1 2 3 4 5 6 7 8 9 10 11 12 13 14 15 16 17 18 19 20 21 22 23 24 25 26 27 28 29 30 31 32 33 34 35 36 37 38 39 40 41 42 43 44 45 46 47 48 49 50

000
ASUS43 KGRB 201710
RWRGRB

NORTH-CENTRAL AND NORTHEAST WISCONSIN REGIONAL WEATHER ROUNDUP
NATIONAL WEATHER SERVICE GREEN BAY WI
1100 AM CST SAT DEC 20 2014

WIZ005-009-010>012-018-019-201800-
NORTH CENTRAL WISCONSIN

CITY           SKY/WX    TMP DP  RH WIND       PRES   REMARKS
IRONWOOD       CLOUDY    27  25  93 S7        30.14F
MANITOWISH WTR CLOUDY    24  24  99 S5        30.16F FOG
ARBOR VITAE    CLOUDY    26  23  91 CALM      30.16F FOG
EAGLE RIVER    CLOUDY    24  24 100 CALM      30.16F FOG
LAND O LAKES   CLOUDY    25  24  96 S5        30.17F FOG
RHINELANDER    CLOUDY    24  23  96 S5        30.18F FOG
PHILLIPS       CLOUDY    26  23  91 SE6       30.16F FOG
ANTIGO         CLOUDY    24  23  96 CALM      30.20F FOG
TOMAHAWK       CLOUDY    26  23  89 CALM      30.19F FOG
MERRILL        CLOUDY    26  24  92 S3        30.20F FOG
$$

WIZ013-073-201800-
NORTHEAST WISCONSIN

CITY           SKY/WX    TMP DP  RH WIND       PRES   REMARKS
IRON MOUNTAIN  CLOUDY    23  20  88 CALM      30.21F
MARINETTE      CLOUDY    25  21  86 CALM      30.26F
OCONTO         CLOUDY    26  24  91 CALM      30.26F
$$

WIZ017-030-035>037-045-201800-
CENTRAL WISCONSIN

CITY           SKY/WX    TMP DP  RH WIND       PRES   REMARKS
MEDFORD        CLOUDY    26  24  90 SE6       30.17F FOG
WAUSAU         CLOUDY    26  24  92 S6        30.20S FOG
MOSINEE        CLOUDY    27  27 100 SE3       30.22F FOG
MARSHFIELD     CLOUDY    28  24  85 S6        30.19F FOG
WISC RAPIDS    CLOUDY    28  22  78 S7        30.23F
STEVENS POINT  CLOUDY    26  22  85 SE3       30.22F FOG
WAUPACA        CLOUDY    30  25  81 CALM      30.25F HAZE
SHAWANO        CLOUDY    27  24  88 CALM      30.26S
CLINTONVILLE   CLOUDY    28  23  80 CALM      30.25F
$$

WIZ038-039-048-051-201800-
FOX VALLEY

CITY           SKY/WX    TMP DP  RH WIND       PRES   REMARKS
NWS GREEN BAY  CLOUDY    27  22  81 CALM      30.26F HAZE
APPLETON       CLOUDY    27  21  80 CALM      30.25F
OSHKOSH        CLOUDY    27  22  81 CALM      30.25F HAZE
FOND DU LAC    CLOUDY    28  21  75 CALM      30.25F
$$

WIZ022-050-052-201800-
EAST CENTRAL WISCONSIN

CITY           SKY/WX    TMP DP  RH WIND       PRES   REMARKS
STURGEON BAY   CLOUDY    27  21  80 CALM      30.28S
MANITOWOC      CLOUDY    30  24  78 NW6       30.26F
SHEBOYGAN      CLOUDY    30  21  69 N5        30.25F
$$

LMZ563-521-522-541>543-201800-
LAKESHORE

STATION/POSITION TIME  TEMP    WIND        PRES    VSBY  WAVE
                       AIR SEA DIR/SP/G                  HT/PER
                 (UTC) (F)     (DEG/KT/KT) (MB)    (MI)  (FT/S)
SHEBOYGAN LKSHOR 1700   30 34  340/  4/  4 1025.6F
KEWAUNEE LKSHORE 1700   29     290/  4/  6 1023.8F
TWO RIVERS CG    1600   29                 1025.3      6   1
NORTHPORT PIER   1700   31     300/  3/  6 1025.1S
SISTER BAY LKSHO 1600          280/  5/  6   N/A
STURGEON BAY CG  1600   28     310/  4     1025.6      6   0
CHAMBERS ISLAND  1700   27     230/  5/  7 1025.1F
MENOMINEE LKSHOR 1700   26     220/  3/  4 1025.5F
$$


USA.gov is the U.S. government's official web portal to all federal, state and local government web resources and services.